STARLINK-4754 (53842 NORAD) Tracking and Keplerian Element Data

This shows tracking and keplerian element data for the satellite.

Feedback or suggestion? Click here.




ElementValue
Catalog53842
NameSTARLINK-4754
Epoch Orbit1053
Epoch Day325.33334491
Epoch Year2022
RAAN305.6429
Inclination53.2175
Eccentricity0.0001035
Argument of Perigee88.2728
Mean Anonmoly297.3923
Mean Motion15.66294611
Decay Rate-0.01138775
L11 53842U 22114AA 22325.33334491 -.01138775 00000+0 -11933-1 0 9997
L22 53842 53.2175 305.6429 0001035 88.2728 297.3923 15.66294611 10535



Live tracking and technical data element details for STARLINK-4754 (NORAD 53842). STARLINK-4754 can be tracked NOW for your location showing map with azimuth and elevation plus other details from your city location.







IsCatalogInMostPopularTable: catalog: 53842, numindb: -1

Insert: records affected: 1


GetName: 53842 STARLINK-4754

Hit Count: inserted at: Thu, 08 Dec 2022 08:44:39 GMT